Time,TemperatureF,DewpointF,PressureIn,WindDirection,WindDirectionDegrees,WindSpeedMPH,WindSpeedGustMPH,Humidity,HourlyPrecipIn,Conditions,Clouds,dailyrainin,SoftwareType,DateUTC
2013-02-04 00:04:00,18.6,14.0,30.01,NNW,336,12.0,12.0,82,0.00,,,0.00,Wunderground v.1.15,2013-02-04 05:04:00,
2013-02-04 00:09:00,18.5,14.2,30.01,NW,326,10.0,10.0,83,0.00,,,0.00,Wunderground v.1.15,2013-02-04 05:09:00,
2013-02-04 00:14:00,18.4,14.1,30.01,NNW,327,9.0,10.0,83,0.00,,,0.00,Wunderground v.1.15,2013-02-04 05:14:00,
2013-02-04 00:19:00,18.2,13.9,30.01,NW,325,9.0,12.0,83,0.00,,,0.00,Wunderground v.1.15,2013-02-04 05:19:00,
2013-02-04 00:24:00,18.1,14.1,30.01,NW,319,10.0,12.0,84,0.00,,,0.00,Wunderground v.1.15,2013-02-04 05:24:00,
2013-02-04 00:29:00,18.1,14.1,30.01,NW,314,9.0,9.0,84,0.00,,,0.00,Wunderground v.1.15,2013-02-04 05:29:00,
2013-02-04 00:34:00,17.9,13.9,30.01,NW,325,8.0,15.0,84,0.00,,,0.00,Wunderground v.1.15,2013-02-04 05:34:00,
2013-02-04 00:44:00,18.0,13.7,30.01,NW,321,9.0,15.0,83,0.00,,,0.00,Wunderground v.1.15,2013-02-04 05:44:00,
2013-02-04 00:49:00,18.0,13.7,30.01,NNW,331,9.0,15.0,83,0.00,,,0.00,Wunderground v.1.15,2013-02-04 05:49:00,
2013-02-04 00:54:00,18.0,13.7,30.01,NNW,344,9.0,15.0,83,0.00,,,0.00,Wunderground v.1.15,2013-02-04 05:54:00,
2013-02-04 00:59:00,18.0,13.7,30.02,NW,320,11.0,14.0,83,0.00,,,0.00,Wunderground v.1.15,2013-02-04 05:59:00,
2013-02-04 01:09:00,17.9,13.6,30.02,NNW,328,10.0,10.0,83,0.00,,,0.00,Wunderground v.1.15,2013-02-04 06:09:00,
2013-02-04 01:14:00,17.8,13.8,30.02,NW,315,9.0,12.0,84,0.00,,,0.00,Wunderground v.1.15,2013-02-04 06:14:00,
2013-02-04 01:19:00,18.0,13.7,30.02,NW,311,10.0,10.0,83,0.00,,,0.00,Wunderground v.1.15,2013-02-04 06:19:00,
2013-02-04 01:24:00,17.9,13.6,30.02,NW,315,11.0,11.0,83,0.00,,,0.00,Wunderground v.1.15,2013-02-04 06:24:00,
2013-02-04 01:34:00,17.7,13.4,30.02,NW,315,8.0,15.0,83,0.00,,,0.00,Wunderground v.1.15,2013-02-04 06:34:00,
2013-02-04 01:39:00,17.7,13.4,30.02,NW,320,8.0,8.0,83,0.00,,,0.00,Wunderground v.1.15,2013-02-04 06:39:00,
2013-02-04 01:44:00,17.7,13.4,30.02,NW,321,7.0,15.0,83,0.00,,,0.00,Wunderground v.1.15,2013-02-04 06:44:00,
2013-02-04 01:54:00,17.9,13.3,30.02,NW,320,7.0,11.0,82,0.00,,,0.00,Wunderground v.1.15,2013-02-04 06:54:00,
2013-02-04 01:59:00,17.9,13.3,30.02,WNW,300,8.0,10.0,82,0.00,,,0.00,Wunderground v.1.15,2013-02-04 06:59:00,
2013-02-04 02:09:00,17.9,13.1,30.03,NNW,327,10.0,10.0,81,0.00,,,0.00,Wunderground v.1.15,2013-02-04 07:09:00,
2013-02-04 02:14:00,17.9,12.8,30.02,NW,314,9.0,10.0,80,0.00,,,0.00,Wunderground v.1.15,2013-02-04 07:14:00,
2013-02-04 02:19:00,17.9,12.8,30.03,NW,318,9.0,9.0,80,0.00,,,0.00,Wunderground v.1.15,2013-02-04 07:19:00,
2013-02-04 02:24:00,17.9,12.8,30.02,NNW,331,9.0,13.0,80,0.00,,,0.00,Wunderground v.1.15,2013-02-04 07:24:00,
2013-02-04 02:29:00,18.0,12.6,30.02,NW,312,9.0,9.0,79,0.00,,,0.00,Wunderground v.1.15,2013-02-04 07:29:00,
2013-02-04 02:39:00,18.2,12.8,30.02,NNW,328,11.0,16.0,79,0.00,,,0.00,Wunderground v.1.15,2013-02-04 07:39:00,
2013-02-04 02:44:00,18.3,13.2,30.02,NW,310,12.0,16.0,80,0.00,,,0.00,Wunderground v.1.15,2013-02-04 07:44:00,
2013-02-04 02:49:00,18.4,13.3,30.02,NW,306,13.0,16.0,80,0.00,,,0.00,Wunderground v.1.15,2013-02-04 07:49:00,
2013-02-04 02:59:00,18.4,13.3,30.02,NW,304,12.0,13.0,80,0.00,,,0.00,Wunderground v.1.15,2013-02-04 07:59:00,
2013-02-04 03:09:00,18.3,13.4,30.02,NW,321,12.0,12.0,81,0.00,,,0.00,Wunderground v.1.15,2013-02-04 08:09:00,
2013-02-04 03:14:00,18.4,13.5,30.02,NW,306,11.0,13.0,81,0.00,,,0.00,Wunderground v.1.15,2013-02-04 08:14:00,
2013-02-04 03:19:00,18.5,13.6,30.02,NW,308,12.0,14.0,81,0.00,,,0.00,Wunderground v.1.15,2013-02-04 08:19:00,
2013-02-04 03:29:00,18.5,13.6,30.02,NNW,328,12.0,12.0,81,0.00,,,0.00,Wunderground v.1.15,2013-02-04 08:29:00,
2013-02-04 03:34:00,18.5,13.6,30.03,NW,311,11.0,16.0,81,0.00,,,0.00,Wunderground v.1.15,2013-02-04 08:34:00,
2013-02-04 03:44:00,18.4,13.3,30.03,NW,321,13.0,16.0,80,0.00,,,0.00,Wunderground v.1.15,2013-02-04 08:44:00,
2013-02-04 03:49:00,18.2,13.1,30.03,NW,313,13.0,13.0,80,0.00,,,0.00,Wunderground v.1.15,2013-02-04 08:49:00,
2013-02-04 03:54:00,18.2,13.1,30.03,NNW,327,12.0,13.0,80,0.00,,,0.00,Wunderground v.1.15,2013-02-04 08:54:00,
2013-02-04 03:59:00,18.1,13.0,30.03,WNW,303,12.0,12.0,80,0.00,,,0.00,Wunderground v.1.15,2013-02-04 08:59:00,
2013-02-04 04:09:00,18.2,12.8,30.03,NW,315,13.0,13.0,79,0.00,,,0.00,Wunderground v.1.15,2013-02-04 09:09:00,
2013-02-04 04:14:00,18.2,12.5,30.03,NW,315,13.0,13.0,78,0.00,,,0.00,Wunderground v.1.15,2013-02-04 09:14:00,
2013-02-04 04:19:00,18.4,12.7,30.04,NW,314,13.0,13.0,78,0.00,,,0.00,Wunderground v.1.15,2013-02-04 09:19:00,
2013-02-04 04:24:00,18.5,12.5,30.04,NW,315,14.0,19.0,77,0.00,,,0.00,Wunderground v.1.15,2013-02-04 09:24:00,
2013-02-04 04:29:00,18.6,12.3,30.04,NW,304,14.0,14.0,76,0.00,,,0.00,Wunderground v.1.15,2013-02-04 09:29:00,
2013-02-04 04:34:00,18.5,12.5,30.04,NNW,331,14.0,15.0,77,0.00,,,0.00,Wunderground v.1.15,2013-02-04 09:34:00,
2013-02-04 04:44:00,18.6,12.6,30.04,NNW,327,15.0,18.0,77,0.00,,,0.00,Wunderground v.1.15,2013-02-04 09:44:00,
2013-02-04 04:49:00,18.6,12.9,30.04,NW,318,15.0,15.0,78,0.00,,,0.00,Wunderground v.1.15,2013-02-04 09:49:00,
2013-02-04 04:54:00,18.5,12.8,30.04,NW,326,14.0,18.0,78,0.00,,,0.00,Wunderground v.1.15,2013-02-04 09:54:00,
2013-02-04 05:04:00,18.5,12.8,30.04,NW,320,14.0,14.0,78,0.00,,,0.00,Wunderground v.1.15,2013-02-04 10:04:00,
2013-02-04 05:09:00,18.4,13.0,30.05,NNW,337,14.0,14.0,79,0.00,,,0.00,Wunderground v.1.15,2013-02-04 10:09:00,
2013-02-04 05:19:00,18.3,13.2,30.05,NW,311,13.0,13.0,80,0.00,,,0.00,Wunderground v.1.15,2013-02-04 10:19:00,
2013-02-04 05:24:00,18.0,13.4,30.06,NNW,338,15.0,15.0,82,0.00,,,0.00,Wunderground v.1.15,2013-02-04 10:24:00,
2013-02-04 05:29:00,17.9,13.9,30.06,NNW,329,15.0,15.0,84,0.00,,,0.00,Wunderground v.1.15,2013-02-04 10:29:00,
2013-02-04 05:34:00,17.7,14.2,30.06,NW,320,13.0,22.0,86,0.00,,,0.00,Wunderground v.1.15,2013-02-04 10:34:00,
2013-02-04 05:39:00,17.7,14.0,30.06,NW,325,13.0,22.0,85,0.00,,,0.00,Wunderground v.1.15,2013-02-04 10:39:00,
2013-02-04 05:44:00,18.0,13.7,30.06,NNW,338,14.0,22.0,83,0.00,,,0.00,Wunderground v.1.15,2013-02-04 10:44:00,
2013-02-04 05:54:00,18.1,13.5,30.06,NNW,344,12.0,22.0,82,0.00,,,0.00,Wunderground v.1.15,2013-02-04 10:54:00,
2013-02-04 05:59:00,18.0,13.7,30.06,NW,318,12.0,15.0,83,0.00,,,0.00,Wunderground v.1.15,2013-02-04 10:59:00,
2013-02-04 06:09:00,17.8,13.2,30.07,NNW,335,13.0,13.0,82,0.00,,,0.00,Wunderground v.1.15,2013-02-04 11:09:00,
2013-02-04 06:14:00,17.8,13.0,30.07,NW,309,12.0,15.0,81,0.00,,,0.00,Wunderground v.1.15,2013-02-04 11:14:00,
2013-02-04 06:19:00,17.8,12.7,30.07,NNW,334,13.0,13.0,80,0.00,,,0.00,Wunderground v.1.15,2013-02-04 11:19:00,
2013-02-04 06:29:00,17.7,12.6,30.07,WNW,302,14.0,14.0,80,0.00,,,0.00,Wunderground v.1.15,2013-02-04 11:29:00,
2013-02-04 06:34:00,17.6,12.2,30.07,NNW,336,13.0,22.0,79,0.00,,,0.00,Wunderground v.1.15,2013-02-04 11:34:00,
2013-02-04 06:44:00,17.6,12.2,30.07,North,355,13.0,15.0,79,0.00,,,0.00,Wunderground v.1.15,2013-02-04 11:44:00,
2013-02-04 06:49:00,17.7,12.0,30.07,NNW,333,12.0,22.0,78,0.00,,,0.00,Wunderground v.1.15,2013-02-04 11:49:00,
2013-02-04 06:54:00,17.6,11.9,30.07,NNW,331,14.0,22.0,78,0.00,,,0.00,Wunderground v.1.15,2013-02-04 11:54:00,
2013-02-04 06:59:00,17.4,11.7,30.08,NNW,327,14.0,14.0,78,0.00,,,0.00,Wunderground v.1.15,2013-02-04 11:59:00,
2013-02-04 07:09:00,17.4,11.7,30.08,NW,315,14.0,14.0,78,0.00,,,0.00,Wunderground v.1.15,2013-02-04 12:09:00,
2013-02-04 07:14:00,17.2,11.5,30.08,NW,311,14.0,14.0,78,0.00,,,0.00,Wunderground v.1.15,2013-02-04 12:14:00,
2013-02-04 07:19:00,17.2,11.5,30.08,NW,324,13.0,15.0,78,0.00,,,0.00,Wunderground v.1.15,2013-02-04 12:19:00,
2013-02-04 07:24:00,17.1,11.4,30.08,WNW,298,13.0,15.0,78,0.00,,,0.00,Wunderground v.1.15,2013-02-04 12:24:00,
2013-02-04 07:34:00,17.2,11.5,30.08,NNW,327,14.0,18.0,78,0.00,,,0.00,Wunderground v.1.15,2013-02-04 12:34:00,
2013-02-04 07:44:00,17.4,11.7,30.09,NNW,333,14.0,27.0,78,0.00,,,0.00,Wunderground v.1.15,2013-02-04 12:44:00,
2013-02-04 07:49:00,17.4,11.7,30.09,NW,321,14.0,27.0,78,0.00,,,0.00,Wunderground v.1.15,2013-02-04 12:49:00,
2013-02-04 07:54:00,17.5,11.5,30.09,NW,322,14.0,27.0,77,0.00,,,0.00,Wunderground v.1.15,2013-02-04 12:54:00,
2013-02-04 07:59:00,17.5,11.5,30.09,NW,311,13.0,14.0,77,0.00,,,0.00,Wunderground v.1.15,2013-02-04 12:59:00,
2013-02-04 08:09:00,17.4,11.1,30.10,NW,309,13.0,19.0,76,0.00,,,0.00,Wunderground v.1.15,2013-02-04 13:09:00,
2013-02-04 08:14:00,17.5,10.9,30.10,NW,306,13.0,19.0,75,0.00,,,0.00,Wunderground v.1.15,2013-02-04 13:14:00,
2013-02-04 08:19:00,17.6,11.0,30.10,NW,313,13.0,13.0,75,0.00,,,0.00,Wunderground v.1.15,2013-02-04 13:19:00,
2013-02-04 08:24:00,17.6,11.0,30.11,NW,307,12.0,15.0,75,0.00,,,0.00,Wunderground v.1.15,2013-02-04 13:24:00,
2013-02-04 08:34:00,17.9,11.0,30.11,NW,310,11.0,23.0,74,0.00,,,0.00,Wunderground v.1.15,2013-02-04 13:34:00,
2013-02-04 08:44:00,18.1,11.2,30.10,NW,325,12.0,13.0,74,0.00,,,0.00,Wunderground v.1.15,2013-02-04 13:44:00,
2013-02-04 08:49:00,18.3,11.4,30.10,NNW,336,11.0,23.0,74,0.00,,,0.00,Wunderground v.1.15,2013-02-04 13:49:00,
2013-02-04 08:54:00,18.5,11.3,30.10,NW,320,12.0,23.0,73,0.00,,,0.00,Wunderground v.1.15,2013-02-04 13:54:00,
2013-02-04 08:59:00,18.7,11.5,30.10,NNW,333,13.0,13.0,73,0.00,,,0.00,Wunderground v.1.15,2013-02-04 13:59:00,
2013-02-04 09:09:00,18.9,11.0,30.11,NW,308,15.0,16.0,71,0.00,,,0.00,Wunderground v.1.15,2013-02-04 14:09:00,
2013-02-04 09:19:00,19.1,10.9,30.11,NNW,337,14.0,17.0,70,0.00,,,0.00,Wunderground v.1.15,2013-02-04 14:19:00,
2013-02-04 09:29:00,19.1,10.6,30.11,NNW,340,15.0,15.0,69,0.00,,,0.00,Wunderground v.1.15,2013-02-04 14:29:00,
2013-02-04 09:34:00,19.0,10.8,30.11,NNW,331,15.0,20.0,70,0.00,,,0.00,Wunderground v.1.15,2013-02-04 14:34:00,
2013-02-04 09:39:00,19.1,10.6,30.11,North,355,15.0,20.0,69,0.00,,,0.00,Wunderground v.1.15,2013-02-04 14:39:00,
2013-02-04 09:44:00,19.0,10.2,30.11,NW,315,15.0,20.0,68,0.00,,,0.00,Wunderground v.1.15,2013-02-04 14:44:00,
2013-02-04 09:54:00,19.2,10.0,30.11,NW,311,15.0,21.0,67,0.00,,,0.00,Wunderground v.1.15,2013-02-04 14:54:00,
2013-02-04 09:59:00,19.2,9.7,30.11,NNW,339,16.0,16.0,66,0.00,,,0.00,Wunderground v.1.15,2013-02-04 14:59:00,
2013-02-04 10:04:00,19.2,9.4,30.11,NW,311,15.0,16.0,65,0.00,,,0.00,Wunderground v.1.15,2013-02-04 15:04:00,
2013-02-04 10:14:00,19.3,8.8,30.10,NW,315,16.0,16.0,63,0.00,,,0.00,Wunderground v.1.15,2013-02-04 15:14:00,
2013-02-04 10:19:00,19.4,9.2,30.10,North,351,14.0,20.0,64,0.00,,,0.00,Wunderground v.1.15,2013-02-04 15:19:00,
2013-02-04 10:29:00,19.2,8.7,30.11,NNW,333,16.0,17.0,63,0.00,,,0.00,Wunderground v.1.15,2013-02-04 15:29:00,
2013-02-04 10:34:00,19.3,9.4,30.10,NNW,329,15.0,24.0,65,0.00,,,0.00,Wunderground v.1.15,2013-02-04 15:34:00,
2013-02-04 10:39:00,19.1,9.3,30.11,NW,325,14.0,24.0,65,0.00,,,0.00,Wunderground v.1.15,2013-02-04 15:39:00,
2013-02-04 10:44:00,19.1,9.6,30.11,NW,320,15.0,24.0,66,0.00,,,0.00,Wunderground v.1.15,2013-02-04 15:44:00,
2013-02-04 10:49:00,18.9,8.7,30.10,WNW,302,15.0,24.0,64,0.00,,,0.00,Wunderground v.1.15,2013-02-04 15:49:00,
2013-02-04 10:59:00,19.0,9.2,30.11,NW,323,16.0,16.0,65,0.00,,,0.00,Wunderground v.1.15,2013-02-04 15:59:00,
2013-02-04 11:09:00,19.3,10.1,30.11,WNW,298,13.0,13.0,67,0.00,,,0.00,Wunderground v.1.15,2013-02-04 16:09:00,
2013-02-04 11:14:00,19.5,10.6,30.11,NNW,337,12.0,14.0,68,0.00,,,0.00,Wunderground v.1.15,2013-02-04 16:14:00,
2013-02-04 11:24:00,19.4,10.9,30.11,NNW,331,15.0,16.0,69,0.00,,,0.00,Wunderground v.1.15,2013-02-04 16:24:00,
2013-02-04 11:34:00,19.7,10.5,30.11,NW,315,14.0,24.0,67,0.00,,,0.00,Wunderground v.1.15,2013-02-04 16:34:00,
2013-02-04 11:39:00,19.9,11.0,30.11,NW,320,14.0,24.0,68,0.00,,,0.00,Wunderground v.1.15,2013-02-04 16:39:00,
2013-02-04 11:44:00,19.6,10.1,30.11,NW,315,14.0,24.0,66,0.00,,,0.00,Wunderground v.1.15,2013-02-04 16:44:00,
2013-02-04 11:49:00,19.5,10.0,30.11,NNW,327,14.0,24.0,66,0.00,,,0.00,Wunderground v.1.15,2013-02-04 16:49:00,
2013-02-04 11:59:00,19.4,9.2,30.10,NNW,337,14.0,14.0,64,0.00,,,0.00,Wunderground v.1.15,2013-02-04 16:59:00,
2013-02-04 12:09:00,19.7,9.8,30.10,NNW,328,12.0,14.0,65,0.00,,,0.00,Wunderground v.1.15,2013-02-04 17:09:00,
2013-02-04 12:14:00,19.6,9.4,30.10,NW,321,13.0,14.0,64,0.00,,,0.00,Wunderground v.1.15,2013-02-04 17:14:00,
2013-02-04 12:19:00,19.7,9.8,30.10,WNW,296,14.0,14.0,65,0.00,,,0.00,Wunderground v.1.15,2013-02-04 17:19:00,
2013-02-04 12:24:00,20.3,10.7,30.10,NW,312,13.0,14.0,66,0.00,,,0.00,Wunderground v.1.15,2013-02-04 17:24:00,
2013-02-04 12:29:00,19.7,9.1,30.10,NW,314,14.0,14.0,63,0.00,,,0.00,Wunderground v.1.15,2013-02-04 17:29:00,
2013-02-04 12:34:00,19.5,9.6,30.10,NW,321,15.0,15.0,65,0.00,,,0.00,Wunderground v.1.15,2013-02-04 17:34:00,
2013-02-04 12:44:00,19.5,10.0,30.10,NNW,340,14.0,21.0,66,0.00,,,0.00,Wunderground v.1.15,2013-02-04 17:44:00,
2013-02-04 12:49:00,19.5,10.3,30.10,NW,319,13.0,13.0,67,0.00,,,0.00,Wunderground v.1.15,2013-02-04 17:49:00,
2013-02-04 12:54:00,19.7,10.5,30.10,North,355,12.0,21.0,67,0.00,,,0.00,Wunderground v.1.15,2013-02-04 17:54:00,
2013-02-04 12:59:00,19.5,11.9,30.10,NW,325,12.0,12.0,72,0.00,,,0.00,Wunderground v.1.15,2013-02-04 17:59:00,
2013-02-04 13:04:00,19.3,11.1,30.09,NW,325,11.0,12.0,70,0.00,,,0.00,Wunderground v.1.15,2013-02-04 18:04:00,
2013-02-04 13:14:00,19.4,12.5,30.09,North,5,11.0,12.0,74,0.00,,,0.00,Wunderground v.1.15,2013-02-04 18:14:00,
2013-02-04 13:19:00,19.6,12.3,30.09,NNW,339,10.0,11.0,73,0.00,,,0.00,Wunderground v.1.15,2013-02-04 18:19:00,
2013-02-04 13:24:00,19.5,11.3,30.09,NNE,21,9.0,11.0,70,0.00,,,0.00,Wunderground v.1.15,2013-02-04 18:24:00,
2013-02-04 13:34:00,19.8,11.3,30.09,NNW,337,9.0,23.0,69,0.00,,,0.00,Wunderground v.1.15,2013-02-04 18:34:00,
2013-02-04 13:39:00,19.9,11.4,30.08,NNW,336,9.0,23.0,69,0.00,,,0.00,Wunderground v.1.15,2013-02-04 18:39:00,
2013-02-04 13:44:00,19.9,11.0,30.09,NW,306,10.0,23.0,68,0.00,,,0.00,Wunderground v.1.15,2013-02-04 18:44:00,
2013-02-04 13:54:00,19.6,10.7,30.09,NW,324,10.0,23.0,68,0.00,,,0.00,Wunderground v.1.15,2013-02-04 18:54:00,
2013-02-04 13:59:00,19.5,11.3,30.09,NNW,329,11.0,11.0,70,0.00,,,0.00,Wunderground v.1.15,2013-02-04 18:59:00,
2013-02-04 14:09:00,18.9,12.0,30.09,North,5,9.0,9.0,74,0.00,,,0.00,Wunderground v.1.15,2013-02-04 19:09:00,
2013-02-04 14:14:00,19.0,12.1,30.09,North,355,8.0,9.0,74,0.00,,,0.00,Wunderground v.1.15,2013-02-04 19:14:00,
2013-02-04 14:19:00,19.1,11.9,30.09,NNW,341,7.0,7.0,73,0.00,,,0.00,Wunderground v.1.15,2013-02-04 19:19:00,
2013-02-04 14:24:00,19.1,12.2,30.09,North,360,8.0,8.0,74,0.00,,,0.00,Wunderground v.1.15,2013-02-04 19:24:00,
2013-02-04 14:34:00,19.2,12.3,30.09,NNW,340,9.0,17.0,74,0.00,,,0.00,Wunderground v.1.15,2013-02-04 19:34:00,
2013-02-04 14:39:00,19.1,11.9,30.09,NNW,336,8.0,8.0,73,0.00,,,0.00,Wunderground v.1.15,2013-02-04 19:39:00,
2013-02-04 14:44:00,19.5,11.6,30.09,NNE,14,7.0,17.0,71,0.00,,,0.00,Wunderground v.1.15,2013-02-04 19:44:00,
2013-02-04 14:57:00,19.7,12.1,30.09,NNE,18,9.0,17.0,72,0.00,,,0.00,Wunderground v.1.15,2013-02-04 19:57:00,
2013-02-04 15:05:00,19.7,12.1,30.09,North,5,8.0,9.0,72,0.00,,,0.00,Wunderground v.1.15,2013-02-04 20:05:00,
2013-02-04 15:10:00,19.9,11.7,30.09,NNW,336,8.0,13.0,70,0.00,,,0.00,Wunderground v.1.15,2013-02-04 20:10:00,
2013-02-04 15:20:00,20.0,11.8,30.09,NW,325,12.0,12.0,70,0.00,,,0.00,Wunderground v.1.15,2013-02-04 20:20:00,
2013-02-04 15:30:00,19.7,11.2,30.09,NW,315,12.0,12.0,69,0.00,,,0.00,Wunderground v.1.15,2013-02-04 20:30:00,
2013-02-04 15:35:00,19.7,11.2,30.09,NW,325,12.0,12.0,69,0.00,,,0.00,Wunderground v.1.15,2013-02-04 20:35:00,
2013-02-04 15:40:00,19.7,11.2,30.09,NW,323,12.0,12.0,69,0.00,,,0.00,Wunderground v.1.15,2013-02-04 20:40:00,
2013-02-04 15:45:00,19.7,11.2,30.09,NW,309,11.0,12.0,69,0.00,,,0.00,Wunderground v.1.15,2013-02-04 20:45:00,
2013-02-04 15:50:00,19.6,11.4,30.09,NNW,336,11.0,14.0,70,0.00,,,0.00,Wunderground v.1.15,2013-02-04 20:50:00,
2013-02-04 15:55:00,19.6,11.7,30.09,NNW,331,11.0,14.0,71,0.00,,,0.00,Wunderground v.1.15,2013-02-04 20:55:00,
2013-02-04 16:00:00,19.6,12.0,30.09,NW,313,11.0,11.0,72,0.00,,,0.00,Wunderground v.1.15,2013-02-04 21:00:00,
2013-02-04 16:10:00,19.6,12.0,30.09,NNW,332,9.0,12.0,72,0.00,,,0.00,Wunderground v.1.15,2013-02-04 21:10:00,
2013-02-04 16:20:00,19.5,11.9,30.09,NW,319,11.0,11.0,72,0.00,,,0.00,Wunderground v.1.15,2013-02-04 21:20:00,
2013-02-04 16:30:00,19.4,11.5,30.09,NW,321,10.0,11.0,71,0.00,,,0.00,Wunderground v.1.15,2013-02-04 21:30:00,
2013-02-04 16:35:00,19.4,11.8,30.09,NW,313,10.0,11.0,72,0.00,,,0.00,Wunderground v.1.15,2013-02-04 21:35:00,
2013-02-04 16:40:00,19.4,12.2,30.09,NNW,331,9.0,12.0,73,0.00,,,0.00,Wunderground v.1.15,2013-02-04 21:40:00,
2013-02-04 16:45:00,19.3,12.1,30.09,NW,322,10.0,12.0,73,0.00,,,0.00,Wunderground v.1.15,2013-02-04 21:45:00,
2013-02-04 16:50:00,19.3,12.4,30.09,NW,326,9.0,9.0,74,0.00,,,0.00,Wunderground v.1.15,2013-02-04 21:50:00,
2013-02-04 17:00:00,19.3,11.7,30.09,NNW,344,9.0,9.0,72,0.00,,,0.00,Wunderground v.1.15,2013-02-04 22:00:00,
2013-02-04 17:10:00,19.3,12.1,30.09,NW,320,8.0,8.0,73,0.00,,,0.00,Wunderground v.1.15,2013-02-04 22:10:00,
2013-02-04 17:15:00,19.2,12.0,30.09,NW,325,6.0,8.0,73,0.00,,,0.00,Wunderground v.1.15,2013-02-04 22:15:00,
2013-02-04 17:20:00,19.1,11.9,30.09,NW,322,7.0,7.0,73,0.00,,,0.00,Wunderground v.1.15,2013-02-04 22:20:00,
2013-02-04 17:30:00,19.1,11.9,30.09,NW,318,7.0,7.0,73,0.00,,,0.00,Wunderground v.1.15,2013-02-04 22:30:00,
2013-02-04 17:35:00,19.1,12.2,30.09,NW,315,6.0,9.0,74,0.00,,,0.00,Wunderground v.1.15,2013-02-04 22:35:00,
2013-02-04 17:45:00,19.1,12.2,30.09,NW,323,6.0,7.0,74,0.00,,,0.00,Wunderground v.1.15,2013-02-04 22:45:00,
2013-02-04 17:50:00,19.1,12.2,30.09,NW,321,6.0,6.0,74,0.00,,,0.00,Wunderground v.1.15,2013-02-04 22:50:00,
2013-02-04 17:55:00,19.1,12.5,30.09,NNW,331,6.0,6.0,75,0.00,,,0.00,Wunderground v.1.15,2013-02-04 22:55:00,
2013-02-04 18:00:00,19.1,12.5,30.09,NW,316,5.0,6.0,75,0.00,,,0.00,Wunderground v.1.15,2013-02-04 23:00:00,
2013-02-04 18:10:00,19.1,12.2,30.09,NNW,338,7.0,7.0,74,0.00,,,0.00,Wunderground v.1.15,2013-02-04 23:10:00,
2013-02-04 18:15:00,19.1,12.2,30.09,NNW,329,7.0,7.0,74,0.00,,,0.00,Wunderground v.1.15,2013-02-04 23:15:00,
2013-02-04 18:20:00,19.1,12.2,30.09,NNW,333,7.0,7.0,74,0.00,,,0.00,Wunderground v.1.15,2013-02-04 23:20:00,
2013-02-04 18:30:00,19.0,12.1,30.09,NW,313,7.0,7.0,74,0.00,,,0.00,Wunderground v.1.15,2013-02-04 23:30:00,
2013-02-04 18:35:00,19.0,12.1,30.10,NW,306,6.0,7.0,74,0.00,,,0.00,Wunderground v.1.15,2013-02-04 23:35:00,
2013-02-04 18:40:00,19.0,12.1,30.10,NW,308,6.0,6.0,74,0.00,,,0.00,Wunderground v.1.15,2013-02-04 23:40:00,
2013-02-04 18:50:00,18.9,11.7,30.10,NW,317,6.0,6.0,73,0.00,,,0.00,Wunderground v.1.15,2013-02-04 23:50:00,
2013-02-04 18:55:00,19.0,11.8,30.10,NW,325,5.0,6.0,73,0.00,,,0.00,Wunderground v.1.15,2013-02-04 23:55:00,
2013-02-04 19:05:00,19.0,11.8,30.10,NW,323,5.0,6.0,73,0.00,,,0.00,Wunderground v.1.15,2013-02-05 00:05:00,
2013-02-04 19:10:00,19.0,12.1,30.10,NW,319,5.0,5.0,74,0.00,,,0.00,Wunderground v.1.15,2013-02-05 00:10:00,
2013-02-04 19:15:00,19.0,12.1,30.10,NW,314,5.0,7.0,74,0.00,,,0.00,Wunderground v.1.15,2013-02-05 00:15:00,
2013-02-04 19:25:00,19.0,11.8,30.10,NW,318,7.0,9.0,73,0.00,,,0.00,Wunderground v.1.15,2013-02-05 00:25:00,
2013-02-04 19:30:00,19.0,11.5,30.10,NW,306,7.0,7.0,72,0.00,,,0.00,Wunderground v.1.15,2013-02-05 00:30:00,
2013-02-04 19:35:00,18.9,11.7,30.10,NW,321,6.0,7.0,73,0.00,,,0.00,Wunderground v.1.15,2013-02-05 00:35:00,
2013-02-04 19:40:00,19.0,11.5,30.10,NNW,332,6.0,9.0,72,0.00,,,0.00,Wunderground v.1.15,2013-02-05 00:40:00,
2013-02-04 19:50:00,19.0,11.5,30.10,NNW,343,6.0,6.0,72,0.00,,,0.00,Wunderground v.1.15,2013-02-05 00:50:00,
2013-02-04 20:00:00,19.0,11.5,30.11,NW,321,6.0,6.0,72,0.00,,,0.00,Wunderground v.1.15,2013-02-05 01:00:00,
2013-02-04 20:10:00,18.9,11.7,30.10,NNW,331,6.0,7.0,73,0.00,,,0.00,Wunderground v.1.15,2013-02-05 01:10:00,
2013-02-04 20:15:00,19.0,11.8,30.11,NW,304,6.0,7.0,73,0.00,,,0.00,Wunderground v.1.15,2013-02-05 01:15:00,
2013-02-04 20:20:00,19.0,12.1,30.11,NW,317,6.0,6.0,74,0.00,,,0.00,Wunderground v.1.15,2013-02-05 01:20:00,
2013-02-04 20:30:00,18.9,12.3,30.10,WNW,298,6.0,8.0,75,0.00,,,0.00,Wunderground v.1.15,2013-02-05 01:30:00,
2013-02-04 20:40:00,18.9,12.6,30.10,NW,323,5.0,5.0,76,0.00,,,0.00,Wunderground v.1.15,2013-02-05 01:40:00,
2013-02-04 20:45:00,18.9,12.6,30.10,NW,313,5.0,5.0,76,0.00,,,0.00,Wunderground v.1.15,2013-02-05 01:45:00,
2013-02-04 20:50:00,18.9,12.6,30.10,NW,309,5.0,5.0,76,0.00,,,0.00,Wunderground v.1.15,2013-02-05 01:50:00,
2013-02-04 20:55:00,19.0,12.7,30.10,NW,310,5.0,5.0,76,0.00,,,0.00,Wunderground v.1.15,2013-02-05 01:55:00,
2013-02-04 21:00:00,19.0,12.7,30.10,NNW,327,5.0,5.0,76,0.00,,,0.00,Wunderground v.1.15,2013-02-05 02:00:00,
2013-02-04 21:05:00,19.0,12.7,30.10,NW,304,5.0,5.0,76,0.00,,,0.00,Wunderground v.1.15,2013-02-05 02:05:00,
2013-02-04 21:10:00,19.0,13.0,30.10,NW,313,5.0,5.0,77,0.00,,,0.00,Wunderground v.1.15,2013-02-05 02:10:00,
2013-02-04 21:20:00,19.1,13.1,30.10,WNW,301,4.0,4.0,77,0.00,,,0.00,Wunderground v.1.15,2013-02-05 02:20:00,
2013-02-04 21:25:00,19.1,13.1,30.10,WNW,301,3.0,5.0,77,0.00,,,0.00,Wunderground v.1.15,2013-02-05 02:25:00,
2013-02-04 21:30:00,19.1,13.1,30.10,WNW,286,3.0,4.0,77,0.00,,,0.00,Wunderground v.1.15,2013-02-05 02:30:00,
2013-02-04 21:40:00,19.2,13.2,30.10,WNW,302,4.0,5.0,77,0.00,,,0.00,Wunderground v.1.15,2013-02-05 02:40:00,
2013-02-04 21:45:00,19.2,13.2,30.10,WNW,291,4.0,5.0,77,0.00,,,0.00,Wunderground v.1.15,2013-02-05 02:45:00,
2013-02-04 21:55:00,19.3,13.6,30.10,WNW,294,3.0,4.0,78,0.00,,,0.00,Wunderground v.1.15,2013-02-05 02:55:00,
2013-02-04 22:05:00,19.3,13.3,30.10,WNW,303,3.0,4.0,77,0.00,,,0.00,Wunderground v.1.15,2013-02-05 03:05:00,
2013-02-04 22:10:00,19.3,13.3,30.10,WNW,303,3.0,3.0,77,0.00,,,0.00,Wunderground v.1.15,2013-02-05 03:10:00,
2013-02-04 22:15:00,19.4,13.7,30.10,NW,307,3.0,4.0,78,0.00,,,0.00,Wunderground v.1.15,2013-02-05 03:15:00,
2013-02-04 22:20:00,19.4,15.6,30.10,NW,308,4.0,4.0,85,0.00,,,0.00,Wunderground v.1.15,2013-02-05 03:20:00,
2013-02-04 22:25:00,19.4,15.6,30.10,NW,309,4.0,4.0,85,0.00,,,0.00,Wunderground v.1.15,2013-02-05 03:25:00,
2013-02-04 22:30:00,19.4,13.7,30.10,NW,309,3.0,3.0,78,0.00,,,0.00,Wunderground v.1.15,2013-02-05 03:30:00,
2013-02-04 22:35:00,19.5,13.8,30.10,NW,309,3.0,3.0,78,0.00,,,0.00,Wunderground v.1.15,2013-02-05 03:35:00,
2013-02-04 22:40:00,19.5,14.0,30.10,NW,309,3.0,4.0,79,0.00,,,0.00,Wunderground v.1.15,2013-02-05 03:40:00,
2013-02-04 22:50:00,19.4,13.9,30.10,NNW,348,3.0,3.0,79,0.00,,,0.00,Wunderground v.1.15,2013-02-05 03:50:00,
2013-02-04 22:55:00,19.4,13.9,30.10,NNW,348,2.0,3.0,79,0.00,,,0.00,Wunderground v.1.15,2013-02-05 03:55:00,
2013-02-04 23:00:00,19.4,13.7,30.10,NNW,333,3.0,3.0,78,0.00,,,0.00,Wunderground v.1.15,2013-02-05 04:00:00,
2013-02-04 23:10:00,19.4,13.4,30.10,WNW,302,4.0,4.0,77,0.00,,,0.00,Wunderground v.1.15,2013-02-05 04:10:00,
2013-02-04 23:15:00,19.4,13.4,30.10,WNW,302,4.0,4.0,77,0.00,,,0.00,Wunderground v.1.15,2013-02-05 04:15:00,
2013-02-04 23:25:00,19.4,13.4,30.10,NW,309,3.0,3.0,77,0.00,,,0.00,Wunderground v.1.15,2013-02-05 04:25:00,
2013-02-04 23:30:00,19.4,13.4,30.10,NW,309,4.0,5.0,77,0.00,,,0.00,Wunderground v.1.15,2013-02-05 04:30:00,
2013-02-04 23:35:00,19.4,13.4,30.10,NW,311,4.0,5.0,77,0.00,,,0.00,Wunderground v.1.15,2013-02-05 04:35:00,
2013-02-04 23:45:00,19.3,13.9,30.10,NW,311,4.0,4.0,79,0.00,,,0.00,Wunderground v.1.15,2013-02-05 04:45:00,
2013-02-04 23:50:00,19.3,13.9,30.10,NW,311,3.0,5.0,79,0.00,,,0.00,Wunderground v.1.15,2013-02-05 04:50:00,